When you browse on this site, cookies collect data to enhance your experience and personalize the content and advertising you see.
Visit our Privacy Policy to learn more. By continuing to use the site, you agree to this use of cookies and data.

Hourly Weather Yulara

Today, 26 September, Saturday

Time Temperature Precipitation Wind Pressure Humidity
00:00 +15°C° 0 mm 4 mps 719 mmHg 33%
01:00 +15°C° 0 mm 4 mps 719 mmHg 34%
02:00 +14°C° 0 mm 4 mps 719 mmHg 35%
03:00 +13°C° 0 mm 4 mps 719 mmHg 36%
04:00 +13°C° 0 mm 4 mps 719 mmHg 39%
05:00 +12°C° 0 mm 5 mps 719 mmHg 41%
06:00 +12°C° 0 mm 5 mps 720 mmHg 44%
07:00 +14°C° 0 mm 6 mps 720 mmHg 38%
08:00 +16°C° 0 mm 6 mps 720 mmHg 33%
09:00 +18°C° 0 mm 7 mps 721 mmHg 26%
10:00 +21°C° 0 mm 6 mps 720 mmHg 23%
11:00 +23°C° 0 mm 6 mps 720 mmHg 20%
12:00 +27°C° 0 mm 5 mps 719 mmHg 17%
13:00 +28°C° 0 mm 4 mps 719 mmHg 15%
14:00 +29°C° 0 mm 3 mps 718 mmHg 14%
15:00 +29°C° 0 mm 3 mps 718 mmHg 13%
16:00 +28°C° 0 mm 3 mps 717 mmHg 14%
17:00 +27°C° 0 mm 3 mps 717 mmHg 15%
18:00 +26°C° 0 mm 3 mps 717 mmHg 16%
19:00 +25°C° 0 mm 4 mps 718 mmHg 17%
20:00 +22°C° 0 mm 4 mps 718 mmHg 19%
21:00 +21°C° 0 mm 5 mps 719 mmHg 20%
22:00 +20°C° 0 mm 5 mps 719 mmHg 22%
23:00 +19°C° 0 mm 5 mps 719 mmHg 25%

Tomorrow, 27 September, Sunday

Time Temperature Precipitation Wind Pressure Humidity
00:00 +17°C° 0 mm 6 mps 719 mmHg 27%
01:00 +16°C° 0 mm 5 mps 718 mmHg 28%
02:00 +15°C° 0 mm 5 mps 718 mmHg 29%
03:00 +15°C° 0 mm 5 mps 718 mmHg 30%
04:00 +14°C° 0 mm 5 mps 718 mmHg 31%
05:00 +14°C° 0 mm 5 mps 718 mmHg 32%
06:00 +13°C° 0 mm 5 mps 718 mmHg 33%
07:00 +16°C° 0 mm 5 mps 719 mmHg 29%
08:00 +19°C° 0 mm 5 mps 719 mmHg 26%
09:00 +22°C° 0 mm 6 mps 720 mmHg 22%
10:00 +26°C° 0 mm 5 mps 719 mmHg 20%
11:00 +30°C° 0 mm 5 mps 719 mmHg 17%
12:00 +34°C° 0 mm 4 mps 719 mmHg 14%
13:00 +35°C° 0 mm 5 mps 718 mmHg 13%
14:00 +36°C° 0 mm 5 mps 718 mmHg 12%
15:00 +36°C° 0 mm 6 mps 717 mmHg 11%
16:00 +35°C° 0 mm 5 mps 717 mmHg 13%
17:00 +33°C° 0 mm 4 mps 717 mmHg 15%
18:00 +31°C° 0 mm 2 mps 717 mmHg 17%
19:00 +29°C° 0 mm 2 mps 717 mmHg 18%
20:00 +28°C° 0 mm 2 mps 718 mmHg 20%
21:00 +26°C° 0 mm 2 mps 718 mmHg 21%
22:00 +26°C° 0 mm 3 mps 718 mmHg 21%
23:00 +25°C° 0 mm 5 mps 718 mmHg 20%

Day after tomorrow, 28 September, Monday

Time Temperature Precipitation Wind Pressure Humidity
00:00 +23°C° 0 mm 7 mps 718 mmHg 20%
01:00 +22°C° 0 mm 5 mps 718 mmHg 22%
02:00 +21°C° 0 mm 4 mps 717 mmHg 25%
03:00 +20°C° 0 mm 3 mps 717 mmHg 27%
04:00 +20°C° 0 mm 3 mps 717 mmHg 30%
05:00 +20°C° 0 mm 3 mps 717 mmHg 33%
06:00 +21°C° 0 mm 2 mps 718 mmHg 35%
07:00 +25°C° 0 mm 3 mps 718 mmHg 33%
08:00 +28°C° 0 mm 4 mps 719 mmHg 30%
09:00 +32°C° 0 mm 5 mps 719 mmHg 27%
10:00 +33°C° 0 mm 7 mps 719 mmHg 24%
11:00 +35°C° 0 mm 8 mps 719 mmHg 21%
12:00 +38°C° 0 mm 9 mps 718 mmHg 18%
13:00 +37°C° 0 mm 9 mps 717 mmHg 19%
14:00 +37°C° 0 mm 9 mps 717 mmHg 19%
15:00 +35°C° 0 mm 9 mps 716 mmHg 20%
16:00 +34°C° 0 mm 8 mps 716 mmHg 22%
17:00 +32°C° 0 mm 6 mps 716 mmHg 24%
18:00 +30°C° 0 mm 4 mps 715 mmHg 26%
19:00 +29°C° 0 mm 3 mps 716 mmHg 29%
20:00 +28°C° 0 mm 2 mps 716 mmHg 31%
21:00 +27°C° 0 mm 1 mps 716 mmHg 34%
22:00 +25°C° 0.3 mm 3 mps 716 mmHg 45%
23:00 +23°C° 0.3 mm 5 mps 716 mmHg 57%

29 September, Tuesday

Time Temperature Precipitation Wind Pressure Humidity
00:00 +21°C° 0.3 mm 7 mps 715 mmHg 69%
01:00 +21°C° 0.1 mm 7 mps 715 mmHg 69%
02:00 +21°C° 0.1 mm 7 mps 714 mmHg 68%
03:00 +21°C° 0.1 mm 6 mps 714 mmHg 68%
04:00 +20°C° 0 mm 6 mps 714 mmHg 69%
05:00 +19°C° 0 mm 5 mps 714 mmHg 70%
06:00 +19°C° 0 mm 4 mps 714 mmHg 71%
07:00 +22°C° 0 mm 5 mps 715 mmHg 58%
08:00 +25°C° 0 mm 5 mps 715 mmHg 45%
09:00 +28°C° 0 mm 6 mps 716 mmHg 32%
10:00 +29°C° 0 mm 6 mps 716 mmHg 30%
11:00 +32°C° 0 mm 6 mps 716 mmHg 28%
12:00 +33°C° 0 mm 7 mps 716 mmHg 26%
13:00 +32°C° 0 mm 8 mps 715 mmHg 26%
14:00 +32°C° 0 mm 8 mps 715 mmHg 26%
15:00 +32°C° 0 mm 9 mps 715 mmHg 26%
16:00 +29°C° 0 mm 9 mps 715 mmHg 28%
17:00 +28°C° 0 mm 8 mps 715 mmHg 31%
18:00 +26°C° 0 mm 8 mps 716 mmHg 33%
19:00 +24°C° 0 mm 8 mps 716 mmHg 37%
20:00 +23°C° 0 mm 8 mps 717 mmHg 42%
21:00 +21°C° 0 mm 8 mps 718 mmHg 46%
22:00 +20°C° 0 mm 7 mps 718 mmHg 49%
23:00 +19°C° 0 mm 6 mps 718 mmHg 51%

30 September, Wednesday

Time Temperature Precipitation Wind Pressure Humidity
00:00 +19°C° 0 mm 4 mps 718 mmHg 54%
01:00 +18°C° 0 mm 4 mps 718 mmHg 56%
02:00 +17°C° 0 mm 3 mps 717 mmHg 58%
03:00 +16°C° 0 mm 3 mps 717 mmHg 61%
04:00 +16°C° 0 mm 3 mps 717 mmHg 62%
05:00 +14°C° 0 mm 3 mps 718 mmHg 63%
06:00 +14°C° 0 mm 3 mps 718 mmHg 65%
07:00 +17°C° 0 mm 3 mps 718 mmHg 56%
08:00 +19°C° 0 mm 4 mps 719 mmHg 47%
09:00 +22°C° 0 mm 5 mps 719 mmHg 39%
10:00 +23°C° 0 mm 5 mps 719 mmHg 33%
11:00 +26°C° 0 mm 5 mps 719 mmHg 28%
12:00 +28°C° 0 mm 5 mps 719 mmHg 23%
13:00 +29°C° 0 mm 5 mps 718 mmHg 21%
14:00 +30°C° 0 mm 4 mps 718 mmHg 19%
15:00 +32°C° 0 mm 4 mps 717 mmHg 18%
16:00 +30°C° 0 mm 3 mps 717 mmHg 19%
17:00 +29°C° 0 mm 3 mps 717 mmHg 20%
18:00 +28°C° 0 mm 3 mps 717 mmHg 21%
19:00 +26°C° 0 mm 3 mps 718 mmHg 23%
20:00 +25°C° 0 mm 3 mps 718 mmHg 25%
21:00 +22°C° 0 mm 4 mps 719 mmHg 27%
22:00 +22°C° 0 mm 3 mps 719 mmHg 29%
23:00 +21°C° 0 mm 3 mps 719 mmHg 30%

1 October, Thursday

Time Temperature Precipitation Wind Pressure Humidity
00:00 +20°C° 0 mm 3 mps 718 mmHg 32%
01:00 +19°C° 0 mm 4 mps 718 mmHg 33%
02:00 +19°C° 0 mm 4 mps 718 mmHg 35%
03:00 +18°C° 0 mm 4 mps 718 mmHg 36%
04:00 +17°C° 0 mm 4 mps 718 mmHg 37%
05:00 +17°C° 0 mm 4 mps 718 mmHg 38%
06:00 +16°C° 0 mm 3 mps 719 mmHg 39%
07:00 +19°C° 0 mm 4 mps 719 mmHg 33%
08:00 +22°C° 0 mm 5 mps 720 mmHg 28%
09:00 +26°C° 0 mm 6 mps 721 mmHg 23%
10:00 +28°C° 0 mm 6 mps 720 mmHg 20%
11:00 +30°C° 0 mm 5 mps 720 mmHg 17%
12:00 +33°C° 0 mm 5 mps 720 mmHg 14%
13:00 +34°C° 0 mm 5 mps 719 mmHg 13%
14:00 +34°C° 0 mm 5 mps 718 mmHg 11%
15:00 +35°C° 0 mm 4 mps 718 mmHg 10%
16:00 +34°C° 0 mm 4 mps 718 mmHg 11%
17:00 +33°C° 0 mm 4 mps 717 mmHg 12%
18:00 +30°C° 0 mm 4 mps 717 mmHg 13%
19:00 +29°C° 0 mm 4 mps 718 mmHg 15%
20:00 +27°C° 0 mm 5 mps 718 mmHg 17%
21:00 +25°C° 0 mm 5 mps 719 mmHg 19%
22:00 +25°C° 0 mm 5 mps 719 mmHg 22%
23:00 +23°C° 0 mm 5 mps 719 mmHg 24%
Show more